Terminal Aerodrome Forecast
Issued by NWS Louisville, KY

Home | Current Version | Previous Version | Text Only | Print | Product List | Glossary On
Versions: 1 2 3 4 5 6 7 8 9 10 11 12 13 14 15 16 17 18 19 20 21 22 23 24 25
000
FTUS43 KLMK 181720
TAFLEX
TAF
KLEX 181720Z 1818/1918 27006KT P6SM FEW009 OVC011
      TEMPO 1818/1819 BKN009
     FM182200 VRB04KT P6SM FEW022 BKN250
      TEMPO 1822/1824 BKN022
     FM190800 12004KT 5SM BR BKN200
     FM191500 13007KT P6SM BKN100=

USA.gov is the U.S. government's official web portal to all federal, state and local government web resources and services.